Overview Statistics Trail Chart Weather Telemetry Raw packets
 

This is the latest recevied weather packets stored in our database for station/object DG6YGE-6. If no packets are shown the sender has not sent any weather packets the latest 10 day(s).

<< 15 16 17 18 19 20 21 >>
Time Temp. Humidity Pressure Rain* Wind** Luminosity Snow
1788420550 18.33° C 79% 1014.6 hPa 0 mm - 126 W/m² -
1788419950 17.78° C 77% 1014.8 hPa 0 mm - 95 W/m² -
1788419350 17.78° C 77% 1014.7 hPa 0 mm - 84 W/m² -
1788418751 17.78° C 78% 1014.8 hPa 0 mm - 85 W/m² -
1788418160 17.22° C 79% 1014.9 hPa 0 mm - 56 W/m² -
1788417550 17.22° C 81% 1015.1 hPa 0 mm - 46 W/m² -
1788416950 17.22° C 81% 1015.3 hPa 0 mm - 34 W/m² -
1788416351 17.22° C 82% 1015.2 hPa 0 mm - 35 W/m² -
1788415750 17.22° C 81% 1014.7 hPa 0 mm - 43 W/m² -
1788415150 16.67° C 82% 1014.8 hPa 0 mm - 41 W/m² -
1788414559 16.67° C 82% 1015.1 hPa 0 mm - 35 W/m² -
1788413950 17.22° C 82% 1015 hPa 0 mm - 16 W/m² -
1788413351 16.67° C 81% 1015 hPa 0 mm - 18 W/m² -
1788412751 16.67° C 81% 1015.1 hPa 0 mm - 11 W/m² -
1788412150 16.67° C 81% 1015.1 hPa 0 mm - 7 W/m² -
1788411550 16.11° C 83% 1015.1 hPa 0 mm - 7 W/m² -
1788410950 16.11° C 83% 1015.6 hPa 0 mm - 0 W/m² -
1788410350 16.11° C 83% 1015.6 hPa 0 mm - 0 W/m² -
1788409750 16.11° C 83% 1015.7 hPa 0 mm - 0 W/m² -
1788409151 16.11° C 84% 1015.7 hPa 0 mm - 0 W/m² -
1788408550 16.11° C 84% 1015.7 hPa 0 mm - 0 W/m² -
1788407950 16.67° C 84% 1015.7 hPa 0 mm - 0 W/m² -
1788407350 16.67° C 83% 1015.8 hPa 0 mm - 0 W/m² -
1788406750 16.67° C 83% 1015.9 hPa 0 mm - 0 W/m² -
1788406150 16.67° C 82% 1016 hPa 0 mm - 0 W/m² -

* Rain latest hour (hover to see other rain measurements)
** Current wind speed in m/s (hover to see current wind gust speed)